Voltar ao catálogo

FENGYUN 1C DEB

AtivoSSO
NORAD 35102·DEBRIS·🇨🇳 China

Lançado May 10, 1999 de Taiyuan Satellite Launch Center

Loading…

Próximas Passagens (próximas 24 horas)

TLE

AtualizadoSource: Space-Track

Época: Sep 13, 2026, 06:32 UTC

1 35102U 99025DKE 26256.27240667  .00000738  00000-0  29980-3 0  9990
2 35102  98.4777 264.1156 0059587   4.6085 355.5633 14.29485745688345

Acompanhe FENGYUN 1C DEB em tempo real com AllMySat

Download on the App Store